Tracking 19706 objects as of 16-Jun-2019
HD Live streaming from Space Station
objects crossing your sky now

DELTA 1 DEB

Track DELTA 1 DEB now!
10-day predictions


NORAD ID: 7044
Int'l Code: 1973-086AL
Perigee: 1,424.9 km
Apogee: 1,565.4 km
Inclination: 102.4 °
Period: 115.7 minutes
Semi major axis: 7866 km
RCS: 0.2084 m2 (medium)
Launch date: November 6, 1973
Source: United States (US)
Launch site: AIR FORCE WESTERN TEST RANGE (AFWTR)

Note: This is SATELLITE DEBRIS
aabbcc
Your satellite tracking list
Your tracking list is empty




NASA's NSSDC Master Catalog

Two Line Element Set (TLE):
1  7044U 73086AL  19166.84850829 -.00000088 +00000-0 -27710-3 0  9994
2  7044 102.4082 270.6142 0089304 255.7533 224.1507 12.44398224071020
Source of the keplerian elements: AFSPC